Location: Saratoga Springs
(43.0831°N, 73.7850°W)
Time: 17:26:37
(UTC-04:00)

Tiros 1 - Pass Details

Date: 17 April 2024
Orbit: 624 x 657 km, 48.4° (Epoch: 28 May)

Event Time Altitude Azimuth Distance (km) Brightness Sun altitude
Rises 08:16:52 0° 292° (WNW) 2,903 9.9 22.3°
Reaches altitude 10° 08:19:19 10° 284° (WNW) 1,994 9.2 22.7°
Maximum altitude 08:23:29 36° 218° (SW) 997 8.1 23.5°
Drops below altitude 10° 08:27:40 10° 152° (SSE) 1,991 10.3 24.3°
Sets 08:30:07 0° 144° (SE) 2,898 11.1 24.7°
